Location: Clatteringshaws Loch
(55.0508°N, 4.2860°W)
Time: 00:56:03
(UTC+01:00)

SR - Visible Passes

Search period start: 23 October 2014 00:00
Search period end: 01 November 2014 23:00
Orbit: 576 x 889 km, 66.7° (Epoch: 22 October)

Date Brightness Start Highest point End Pass type
(mag) Time Alt. Az. Time Alt. Az. Time Alt. Az.
23 Oct ? 19:31:38 10° WNW 19:36:30 26° N 19:40:35 13° NE visible
23 Oct ? 21:15:06 10° NW 21:20:04 33° NNE 21:20:04 33° NNE visible
23 Oct ? 22:57:36 10° NW 22:59:34 22° NW 22:59:34 22° NW visible
24 Oct ? 18:42:35 10° WNW 18:47:36 28° NNW 18:52:27 10° NE visible
24 Oct ? 20:26:29 10° NW 20:31:28 28° NNE 20:32:54 25° NE visible
24 Oct ? 22:09:11 10° NW 22:12:23 32° NNW 22:12:23 32° NNW visible
24 Oct ? 23:51:44 10° NW 23:51:52 11° NW 23:51:52 11° NW visible
25 Oct ? 19:37:43 10° NW 19:42:34 26° N 19:45:44 16° NE visible
25 Oct ? 21:20:45 10° NW 21:25:13 38° N 21:25:13 38° N visible
25 Oct ? 23:03:12 10° NW 23:04:43 19° NW 23:04:43 19° NW visible
26 Oct ? 17:48:48 10° WNW 17:53:39 26° N 17:58:18 10° NE visible
26 Oct ? 19:32:15 10° NW 19:37:26 33° NNE 19:38:04 32° NE visible
26 Oct ? 21:14:45 10° NW 21:17:34 30° NW 21:17:34 30° NW visible
27 Oct ? 18:43:38 10° NW 18:48:36 28° NNE 18:50:56 21° NE visible
27 Oct ? 20:26:20 10° NW 20:30:26 42° NNW 20:30:26 42° NNW visible
27 Oct ? 22:08:53 10° NW 22:09:55 15° NW 22:09:55 15° NW visible
28 Oct ? 17:54:52 10° NW 17:59:42 26° N 18:03:49 12° ENE visible
28 Oct ? 19:37:54 10° NW 19:43:18 41° NNE 19:43:19 41° NNE visible
28 Oct ? 21:20:20 10° NW 21:22:48 26° NW 21:22:48 26° NW visible
29 Oct ? 18:49:23 10° NW 18:54:33 33° NNE 18:56:13 27° NE visible
29 Oct ? 20:31:53 10° NW 20:35:42 44° NW 20:35:42 44° NW visible
29 Oct ? 22:14:48 10° WNW 22:15:12 12° WNW 22:15:12 12° WNW visible
30 Oct ? 18:00:46 10° NW 18:05:42 28° NNE 18:09:08 16° ENE visible
30 Oct ? 19:43:27 10° NW 19:48:38 55° NNE 19:48:38 55° NNE visible
30 Oct ? 21:26:01 10° NW 21:28:08 22° WNW 21:28:08 22° WNW visible
31 Oct ? 18:55:01 10° NW 19:00:24 41° NNE 19:01:36 36° ENE visible
31 Oct ? 20:37:27 10° NW 20:41:05 40° WNW 20:41:05 40° WNW visible
01 Nov ? 18:06:30 10° NW 18:11:38 33° NNE 18:14:35 20° ENE visible
01 Nov ? 19:48:59 10° NW 19:54:05 72° NNW 19:54:05 72° NNW visible
01 Nov ? 21:31:55 10° WNW 21:33:35 17° WNW 21:33:35 17° WNW visible
